星链-11167 [DTC] (STARLINK-11167 [DTC] )

导读 | 豆包AI

STARLINK-11167是美国SpaceX公司于2024年6月19日发射的星链(Starlink)低轨互联网卫星,隶属于全球规模最大的低轨卫星星座计划。星链计划旨在近地轨道部署超4万颗卫星,为全球偏远地区、海洋、航空等场景提供高速低延迟的卫星互联网接入服务,同时可支撑灾害应急通信、军事通信等特殊需求。该卫星继承了星链成熟的卫星制造技术,将进一步扩充星链星座的全球网络覆盖能力,推动卫星互联网的普及应用。

基本信息
目录编号:
60061
目录名称:
STARLINK-11167
国际标识:
2024-113C
轨道中心:
EARTH
卫星名称:
星链-11167 [DTC]
卫星全名:
星链-11167 [DTC] (STARLINK-11167 [DTC] )
卫星状态:
在轨 (已飞行634 天)
发射日期:
2024-06-19 UTC
国别 :
美国 (US)
星等 :
--
轨道信息
数据来源 国际轨道数据
星历时间: 2026-03-14T21:05:44+0800
1天前
查看轨道信息
半长轴: 6737.895km
偏心率: 0.0000808
轨道倾角: 53.158°
近地点辐角 80.881°
升交点赤经 167.290°
平近点角 279.230°
近地点: 359.213km
远地点: 360.303km
周期: 91.737分钟
每日圈数: 15.696991
详细信息
固有亮度:
5
最大亮度:
0.3
卫星平台:
Starlink v2.0 mini
覆盖范围:
全球
运营商:
太空探索技术公司
运营商所在国:
美国
制造商(研发单位):
太空探索技术公司
制造商所在国:
美国
使用方式:
暂无
卫星简介
星链(Starlink)计划是由太空探索技术公司(SpaceX)提出的一个巨型低轨卫星互联网星座项目,计划在2019年至2024年间在太空搭建由约1.2万颗卫星组成的“星链”网络,其中1584颗将部署在地球上空550千米处的近地轨道,并从2020年开始工作。该卫星仍在工作。
2D轨道图
3D轨道图
轨道高度分析图
轨道倾角分析图
轨道综合分析图
查看轨道综合分析图